User: anonymous   Login
Location: Unspecified
(0.0000°N, 0.0000°E)
Time: 02:51:00
(UTC+00:00)
Language:

OAO 3 Copernicus - Orbit

View from above orbital plane
View from above orbital plane
View from above satellite
View from above satellite

Ground track
Ground track

The orbit data is extracted from the following two-line orbital elements,

1  6153U 72065A   17147.57232359 +.00000032 +00000-0 +11375-4 0  9997
2  6153 035.0057 167.6414 0007400 262.1091 244.7326 14.57834606377603
Epoch (UTC): 27 May 2017 13:44:08
Eccentricity: 0.0007400
inclination: 35.0057°
perigee height: 695 km
apogee height: 705 km
right ascension of ascending node: 167.6414°
argument of perigee: 262.1091°
revolutions per day: 14.57834606
mean anomaly at epoch: 244.7326°
orbit number at epoch: 37760

The dashed part of the orbit path shows where the satellite is in the earth's shadow,  

DLR